Weather History for KPQN - February, 2014

Change the Weather History Date:

Tuesday, February 25, 2014

  Actual Average Record
Temperature  
Mean Temperature -4 °F -  
Max Temperature 6 °F 29 °F 51 °F (1998)
Min Temperature -13 °F 14 °F -13 °F (2014)
Degree Days  
Heating Degree Days 68    
Moisture  
Dew Point -7 °F    
Average Humidity 76    
Maximum Humidity 85    
Minimum Humidity 61    
Precipitation  
Precipitation 0.00 in - - ()
Sea Level Pressure  
Sea Level Pressure 30.32 in    
Wind  
Wind Speed 11 mph (NW)    
Max Wind Speed 22 mph    
Max Gust Speed 30 mph    
Visibility 9 miles    
Events      
Averages and records for this station are not official NWS values.
T = Trace of Precipitation, MM = Missing Value Source: NWS Daily Summary

Daily Weather History Graph

Daily Weather History Graph

Search for Another Location

Airport or City:

Trip Planner

Search our weather history database for the weather conditions in past years. The results will help you decide how hot, cold, wet, or windy it might be!

Date:

Astronomy

Feb. 25, 2014 Rise Set
Actual Time 7:08 AM CST 6:08 PM CST
Civil Twilight 6:39 AM CST 6:37 PM CST
Nautical Twilight 6:06 AM CST 7:11 PM CST
Astronomical Twilight 5:32 AM CST 7:44 PM CST
Moon 4:10 AM CST (2/25) 2:09 PM CST (2/25)
Length of Visible Light 11h 57m
Length of Day
10h 59m
Waning Crescent, 18% of the Moon is Illuminated
Feb 25
Waning Crescent
Mar 1
New
Mar 8
First Quarter
Mar 16
Full
Mar 23
Last Quarter

Hourly Weather History & Observations

Time (CST) Temp. Windchill Dew Point Humidity Pressure Visibility Wind Dir Wind Speed Gust Speed Precip Events Conditions
12:13 AM 1.4 °F -15.3 °F -2.2 °F 85% 30.33 in 10.0 mi NNW 11.5 mph 17.3 mph N/A   Clear
12:33 AM 1.4 °F -16.1 °F -4.0 °F 78% 30.32 in 10.0 mi NNW 12.7 mph - N/A   Clear
12:53 AM -0.4 °F -15.7 °F -4.0 °F 85% 30.33 in 10.0 mi NNW 9.2 mph - N/A   Clear
1:13 AM -0.4 °F -13.4 °F -5.8 °F 78% 30.34 in 10.0 mi NW 6.9 mph - N/A   Clear
1:34 AM -2.2 °F -18.0 °F -5.8 °F 85% 30.34 in 10.0 mi NW 9.2 mph - N/A   Clear
1:53 AM -2.2 °F -18.0 °F -5.8 °F 85% 30.34 in 10.0 mi NW 9.2 mph - N/A   Clear
2:13 AM -2.2 °F -19.9 °F -5.8 °F 85% 30.33 in 10.0 mi NNW 11.5 mph - N/A   Clear
2:34 AM -2.2 °F -22.2 °F -5.8 °F 85% 30.32 in 10.0 mi NNW 15.0 mph - N/A   Clear
2:53 AM -2.2 °F -21.5 °F -7.6 °F 78% 30.32 in 10.0 mi NNW 13.8 mph - N/A   Clear
3:13 AM -2.2 °F -22.9 °F -7.6 °F 78% 30.32 in 10.0 mi NNW 16.1 mph - N/A   Clear
3:34 AM -4.0 °F -23.7 °F -9.4 °F 78% 30.31 in 10.0 mi NNW 13.8 mph - N/A   Clear
3:53 AM -4.0 °F -23.0 °F -9.4 °F 78% 30.30 in 10.0 mi NNW 12.7 mph - N/A   Clear
4:13 AM -4.0 °F -20.2 °F -9.4 °F 78% 30.30 in 10.0 mi NW 9.2 mph - N/A   Clear
4:34 AM -5.8 °F -21.2 °F -9.4 °F 84% 30.30 in 10.0 mi NW 8.1 mph - N/A   Clear
4:53 AM -5.8 °F -21.2 °F -9.4 °F 84% 30.29 in 10.0 mi NNW 8.1 mph - N/A   Clear
5:13 AM -5.8 °F -21.2 °F -11.2 °F 77% 30.30 in 10.0 mi NNW 8.1 mph - N/A   Clear
5:34 AM -7.6 °F -22.1 °F -11.2 °F 84% 30.29 in 10.0 mi NW 6.9 mph - N/A   Clear
5:53 AM -7.6 °F -18.8 °F -13.0 °F 77% 30.30 in 10.0 mi WNW 4.6 mph - N/A   Clear
6:13 AM -11.2 °F -20.6 °F -14.8 °F 84% 30.30 in 10.0 mi West 3.5 mph - N/A   Clear
6:34 AM -13.0 °F -22.7 °F -16.6 °F 84% 30.30 in 7.0 mi West 3.5 mph - N/A   Clear
6:53 AM -11.2 °F -20.6 °F -14.8 °F 84% 30.29 in 10.0 mi WNW 3.5 mph - N/A   Clear
7:13 AM -11.2 °F -23.0 °F -16.6 °F 77% 30.29 in 10.0 mi WNW 4.6 mph - N/A   Clear
7:34 AM -11.2 °F -26.4 °F -16.6 °F 77% 30.30 in 10.0 mi West 6.9 mph - N/A   Clear
7:53 AM -11.2 °F -23.0 °F -16.6 °F 77% 30.30 in 10.0 mi West 4.6 mph - N/A   Clear
8:13 AM -9.4 °F -25.6 °F -14.8 °F 77% 30.30 in 10.0 mi West 8.1 mph - N/A   Clear
8:33 AM -7.6 °F -23.4 °F -13.0 °F 77% 30.31 in 10.0 mi West 8.1 mph - N/A   Clear
8:54 AM -7.6 °F -22.1 °F -11.2 °F 84% 30.32 in 10.0 mi West 6.9 mph - N/A   Clear
9:13 AM -5.8 °F -21.2 °F -11.2 °F 77% 30.32 in 10.0 mi West 8.1 mph - N/A   Clear
9:33 AM -5.8 °F -22.4 °F -9.4 °F 84% 30.31 in 10.0 mi West 9.2 mph - N/A   Clear
9:53 AM -4.0 °F -22.1 °F -9.4 °F 78% 30.32 in 10.0 mi West 11.5 mph - N/A   Scattered Clouds
10:13 AM -2.2 °F -19.9 °F -5.8 °F 85% 30.32 in 10.0 mi WNW 11.5 mph - N/A   Scattered Clouds
10:33 AM -0.4 °F -18.4 °F -5.8 °F 78% 30.32 in 10.0 mi WNW 12.7 mph - N/A   Clear
10:53 AM 1.4 °F -16.1 °F -5.8 °F 72% 30.31 in 10.0 mi WNW 12.7 mph - N/A   Clear
11:13 AM 3.2 °F -13.9 °F -4.0 °F 72% 30.31 in 10.0 mi NW 12.7 mph - N/A   Clear
11:33 AM 3.2 °F -12.2 °F -5.8 °F 66% 30.31 in 10.0 mi NW 10.4 mph - N/A   Clear
11:53 AM 3.2 °F -15.3 °F -4.0 °F 72% 30.30 in 10.0 mi NW 15.0 mph 18.4 mph N/A   Clear
12:13 PM 3.2 °F -15.3 °F -4.0 °F 72% 30.30 in 7.0 mi WNW 15.0 mph 21.9 mph N/A   Clear
12:34 PM 5.0 °F -14.2 °F -4.0 °F 66% 30.30 in 7.0 mi NW 17.3 mph 21.9 mph N/A   Clear
12:53 PM 6.8 °F -12.9 °F -4.0 °F 61% 30.30 in 4.0 mi NW 19.6 mph 27.6 mph N/A   Haze
1:13 PM 5.0 °F -13.6 °F -4.0 °F 66% 30.30 in 5.0 mi NW 16.1 mph 27.6 mph N/A   Haze
1:34 PM 6.8 °F -12.9 °F -2.2 °F 67% 30.29 in 5.0 mi NW 19.6 mph 26.5 mph N/A   Haze
1:53 PM 6.8 °F -13.8 °F -2.2 °F 67% 30.29 in 3.0 mi NNW 21.9 mph 25.3 mph N/A   Haze
2:13 PM 5.0 °F -16.2 °F -2.2 °F 72% 30.28 in 4.0 mi NW 21.9 mph 26.5 mph N/A   Haze
2:34 PM 6.8 °F -13.8 °F -2.2 °F 67% 30.28 in 3.0 mi NNW 21.9 mph 29.9 mph N/A   Haze
2:53 PM 6.8 °F -13.8 °F -2.2 °F 67% 30.28 in 4.0 mi NNW 21.9 mph 27.6 mph N/A   Haze
3:13 PM 6.8 °F -12.9 °F -0.4 °F 72% 30.29 in 3.0 mi NNW 19.6 mph 28.8 mph N/A   Haze
3:34 PM 6.8 °F -13.4 °F -0.4 °F 72% 30.29 in 4.0 mi NNW 20.7 mph 29.9 mph N/A   Haze
3:53 PM 6.8 °F -10.7 °F -0.4 °F 72% 30.30 in 4.0 mi North 15.0 mph 26.5 mph N/A   Haze
4:13 PM 5.0 °F -13.6 °F -2.2 °F 72% 30.30 in 5.0 mi North 16.1 mph 26.5 mph N/A   Haze
4:34 PM 5.0 °F -15.7 °F -2.2 °F 72% 30.30 in 7.0 mi NNW 20.7 mph 26.5 mph N/A   Scattered Clouds
4:53 PM 3.2 °F -13.9 °F -2.2 °F 78% 30.31 in 10.0 mi North 12.7 mph 24.2 mph N/A   Scattered Clouds
5:13 PM 3.2 °F -13.9 °F -4.0 °F 72% 30.32 in 10.0 mi NNW 12.7 mph 20.7 mph N/A   Clear
5:34 PM 3.2 °F -15.3 °F -4.0 °F 72% 30.32 in 10.0 mi NNW 15.0 mph 21.9 mph N/A   Clear
5:53 PM 3.2 °F -14.6 °F -5.8 °F 66% 30.33 in 10.0 mi NNW 13.8 mph 20.7 mph N/A   Clear
6:13 PM 1.4 °F -17.6 °F -5.8 °F 72% 30.34 in 10.0 mi NNW 15.0 mph - N/A   Clear
6:34 PM 1.4 °F -18.2 °F -5.8 °F 72% 30.34 in 10.0 mi NNW 16.1 mph 20.7 mph N/A   Clear
6:53 PM 1.4 °F -16.1 °F -5.8 °F 72% 30.35 in 10.0 mi NNW 12.7 mph - N/A   Clear
7:13 PM 1.4 °F -17.6 °F -5.8 °F 72% 30.36 in 10.0 mi NNW 15.0 mph - N/A   Clear
7:34 PM 1.4 °F -15.3 °F -7.6 °F 66% 30.36 in 10.0 mi NNW 11.5 mph 20.7 mph N/A   Clear
7:53 PM -0.4 °F -16.7 °F -7.6 °F 72% 30.36 in 10.0 mi NNW 10.4 mph - N/A   Clear
8:13 PM -0.4 °F -14.7 °F -7.6 °F 72% 30.37 in 10.0 mi NNW 8.1 mph - N/A   Clear
8:33 PM -0.4 °F -15.7 °F -7.6 °F 72% 30.36 in 10.0 mi NW 9.2 mph - N/A   Clear
8:53 PM -2.2 °F -14.2 °F -7.6 °F 78% 30.37 in 10.0 mi NW 5.8 mph - N/A   Clear
9:14 PM -2.2 °F -16.8 °F -7.6 °F 78% 30.37 in 10.0 mi NW 8.1 mph - N/A   Clear
9:33 PM -2.2 °F -16.8 °F -7.6 °F 78% 30.37 in 10.0 mi NW 8.1 mph - N/A   Clear
9:53 PM -4.0 °F -17.8 °F -9.4 °F 78% 30.38 in 10.0 mi WNW 6.9 mph - N/A   Clear
10:14 PM -4.0 °F -17.8 °F -9.4 °F 78% 30.37 in 10.0 mi NW 6.9 mph - N/A   Clear
10:33 PM -4.0 °F -20.2 °F -9.4 °F 78% 30.37 in 10.0 mi NW 9.2 mph - N/A   Clear
10:53 PM -4.0 °F -20.2 °F -9.4 °F 78% 30.37 in 10.0 mi NW 9.2 mph - N/A   Clear
11:14 PM -4.0 °F -20.2 °F -9.4 °F 78% 30.36 in 10.0 mi NW 9.2 mph - N/A   Clear
11:33 PM -4.0 °F -19.0 °F -7.6 °F 85% 30.35 in 10.0 mi NW 8.1 mph - N/A   Clear
11:53 PM -4.0 °F -21.2 °F -9.4 °F 78% 30.35 in 10.0 mi NW 10.4 mph - N/A   Clear